Regional Weather Roundup
Issued by NWS Charleston, WV

Home | Current Version | Previous Version | Graphics & Text | Print | Product List | Glossary On
Versions: 1 2 3 4 5 6 7 8 9 10 11 12 13 14 15 16 17 18 19 20 21 22 23 24 25 26 27 28 29 30 31 32 33 34 35 36 37 38 39 40 41 42 43 44 45 46 47 48 49 50
000
ASUS41 KRLX 271010
RWRRLX
West Virginia Regional Weather Roundup
National Weather Service Charleston WV
600 AM EDT FRI MAR 27 2015

Note: "fair" indicates few or no clouds below 12,000 feet with no
significant weather and/or obstructions to visibility.

WVZ003-271100-
Northern Panhandle of West Virginia

CITY           SKY/WX    TMP DP  RH WIND       PRES   REMARKS
WHEELING       CLOUDY    34  28  79 NW9       29.84F
$$

WVZ009-271100-
Northwest West Virginia

CITY           SKY/WX    TMP DP  RH WIND       PRES   REMARKS
PARKERSBURG    PTCLDY    35  29  78 NW9       29.91S
$$

WVZ006-271100-
Western West Virginia

CITY           SKY/WX    TMP DP  RH WIND       PRES   REMARKS
HUNTINGTON     PTCLDY    35  31  85 N8        29.90S
$$

WVZ015-271100-
West Central West Virginia

CITY           SKY/WX    TMP DP  RH WIND       PRES   REMARKS
CHARLESTON     CLOUDY    39  33  79 NW12      29.88R
$$

WVZ022-031-271100-
North Central West Virginia

CITY           SKY/WX    TMP DP  RH WIND       PRES   REMARKS
CLARKSBURG     CLOUDY    38  33  82 NW3       29.83R
MORGANTOWN     CLOUDY    37  30  75 NW3       29.82F
$$

WVZ025-035-042-045-271100-
Southern West Virginia

CITY           SKY/WX    TMP DP  RH WIND       PRES   REMARKS
BECKLEY        CLOUDY    34  32  92 N14       29.79F FOG
LOGAN          CLOUDY    37  34  87 NW6       29.83R
BLUEFIELD      MIX PCPN  37  33  85 NW5       29.77F
LEWISBURG      DRIZZLE   40  35  81 NW5       29.79R
$$

WVZ047-271100-
Northern Mountains of West Virginia

CITY           SKY/WX    TMP DP  RH WIND       PRES   REMARKS
ELKINS         CLOUDY    34  29  82 NW6       29.82R
$$

WVZ052-271100-
Eastern Panhandle of West Virginia

CITY           SKY/WX    TMP DP  RH WIND       PRES   REMARKS
MARTINSBURG    CLOUDY    42  35  76 N9        29.79F
PETERSBURG     CLOUDY    41  31  67 N5        29.82R
$$



USA.gov is the U.S. government's official web portal to all federal, state and local government web resources and services.